IRIDIUM 33 DEB, 36497

Orbit data source: Space-Track

IRIDIUM 33 DEB, 36497 is space debris in LEO originally from a launch on Sun, 14 Sep 1997 UTC launched from the Tyuratam Missile And Space Complex (TTMTR). The debris from Iridium 33, an American commercial communications satellite, has been tracked extensively since its accidental collision with the defunct Russian satellite Cosmos 2251 in 2009. This event, occurring at high speed in low Earth orbit (LEO), generated thousands of pieces of space debris, significantly increasing the risk of further collisions. The Iridium 33 debris cloud has impacted space traffic management and orbital debris mitigation strategies, making it a subject of ongoing study in space situational awareness.

Loading next visibility...
Identifier
36497, 1997-051WP
Orbit
LEO
Country
Flag of USUS
Related business
Manufacturer
Unknown
Mission
Spacecraft
Bus & Motor
Unknown
Mass
Unknown
Launch date (UTC)
1997-09-14 (29 years ago)
Launch vehicle
Unknown
Launch site
Tyuratam Missile And Space Complex (TTMTR)
Object type
Payload
Rocket body
Debris
Shape & HBR
Unknown shape, 0.1 m
Radar Cross Section
Small (<0.1 m²)

Expand to show TLE details & history
Last TLE update: 5 days ago

TLE from 5 days ago
0 IRIDIUM 33 DEB
1 36497U 97051WP  26115.47110710  .00005733  00000-0  10368-2 0  9995
2 36497  86.1575 191.4063 0045525  28.0149 332.3499 14.65551792676098
Epoch: 2026-04-25T11:18Z
TLE epoch observation values (Epoch: 2026-04-25T11:18:23.653Z)
Latitude
-0.00006°
Longitude
168.31874°
Altitude
649.978 km
Speed
7.548 km/s
True Right ascension
12h 45m 37s
True Declination
0° 00' 00"
Sunlit
Object was in full shadow at epoch
Visualization orbit readout
Latitude
Unknown
Longitude
Unknown
Altitude
Unknown
Speed
Unknown
Apparent Right ascension
Unknown
Apparent Declination
Unknown
Sunlit
N/A
Visualization observer readout
Local Sidereal Time
22:56:20
Azimuth
Unknown
Elevation
Unknown
Doppler factor
Unknown
Orbital elements
Apogee altitude
704.326 km
Perigee altitude
640.133 km
Semi-major axis
7,050.367 km
Eccentricity
0.00455
Inclination
86.1575°
RAAN
191.4063°
Arg. of periapsis
28.0149°
True anomaly
332.10658°
Mean anomaly
332.3499°
Eccentric anomaly
332.22836°
Mean motion
3.66628 °/min
Orbital period
98.19 mins
BSTAR
0.0010368
Loading maneuver chart data...
Computing Atmospheric mass density...

Documentation

Showing up to 5 results
|